Theta_e
324 325 330 335 335 335 336 338 342 344 348 348 339 341 349 346 344 344 343 340 341 339 336 336 335 333 333 330 328 325 323 319 316 316 316 315 314 314 313 311 310 308 307 306
325 327 329 333 334 334 335 336 336 338 341 340 335 336 341 347 346 343 343 341 341 340 338 337 334 333 331 329 327 324 321 318 316 316 315 315 314 314 312 310 309 307 307 306
326 327 327 330 333 334 335 337 336 331 340 341 338 334 337 347 348 344 343 342 341 339 339 339 335 333 330 328 325 323 319 317 316 315 315 315 314 313 311 310 308 308 307 307
324 327 328 329 330 332 334 333 334 331 331 332 336 341 343 345 351 348 344 344 341 340 339 339 336 332 330 327 324 322 318 316 315 314 314 313 313 312 310 308 308 308 308 307
324 326 327 327 327 329 329 328 328 329 329 331 333 336 343 345 353 349 346 344 342 341 339 339 336 332 329 326 324 320 317 316 315 315 313 312 311 311 310 310 309 309 307 307
325 326 326 325 326 326 327 327 327 330 331 332 339 344 347 355 352 350 347 345 342 340 339 337 334 331 328 325 322 318 317 316 316 315 313 312 312 311 311 312 311 311 309 308
323 324 325 324 324 325 325 328 329 333 336 347 345 347 350 349 349 349 348 344 342 340 339 334 332 330 327 325 320 317 316 316 315 315 313 312 312 311 311 311 311 311 311 310
324 324 325 324 324 325 327 329 333 341 348 344 344 348 351 347 343 345 346 343 342 341 337 335 332 329 327 323 318 316 316 316 315 314 313 312 311 311 312 312 312 312 311 310
325 325 326 325 325 327 330 332 331 342 341 338 342 349 349 349 344 345 346 345 344 339 338 335 331 328 325 321 316 315 316 315 315 314 313 311 311 311 312 312 312 312 311 312
326 328 327 325 325 327 332 333 338 339 345 342 342 345 356 352 348 344 347 346 342 338 336 333 329 326 323 318 315 315 315 315 315 314 313 312 311 311 312 312 310 310 310 311
325 331 331 327 325 328 332 332 337 341 340 342 348 353 344 347 348 345 347 344 340 338 334 330 328 325 321 317 315 315 315 315 315 313 313 312 312 311 312 311 311 310 310 309
326 334 334 332 328 329 329 333 335 340 341 343 343 346 342 345 346 346 344 341 338 336 333 330 327 323 319 316 315 315 315 315 315 313 313 312 312 312 312 312 311 311 309 309
329 332 335 338 332 331 329 331 336 345 344 344 343 346 339 340 344 344 341 339 338 335 332 329 326 322 319 316 315 315 315 315 314 313 313 313 312 312 312 311 309 309 309 309
334 337 338 339 336 335 334 331 333 339 345 340 343 339 341 342 342 342 341 340 337 335 332 329 326 323 319 316 314 315 315 315 314 312 313 312 312 312 310 311 309 309 309 310
336 342 332 331 332 336 333 331 330 333 335 337 336 339 343 344 342 341 341 339 337 334 331 328 326 323 319 316 315 315 315 315 313 312 313 312 312 311 310 310 309 310 310 309
337 338 335 335 334 336 334 334 333 333 333 333 334 337 338 338 339 340 340 339 337 334 330 328 327 323 320 317 315 314 315 315 313 313 313 312 311 310 310 310 311 312 311 309
341 336 346 337 335 334 334 333 332 333 333 334 335 339 338 336 338 340 341 338 336 334 331 329 326 323 320 318 315 315 315 314 313 313 312 312 311 310 310 311 312 312 311 311
343 347 342 343 340 341 339 335 334 334 334 332 333 334 333 336 336 336 337 337 336 335 331 328 325 322 319 317 315 314 315 314 313 312 312 311 311 311 310 311 311 312 311 310
342 347 340 347 346 339 338 336 333 333 333 332 332 334 332 333 334 334 334 335 337 334 330 327 324 321 319 317 315 315 314 314 313 313 312 311 311 311 312 312 312 312 312 311
339 348 348 341 340 348 338 335 332 331 333 333 332 336 334 333 335 335 336 336 334 331 328 325 322 319 318 317 315 314 314 314 313 312 312 311 311 310 311 313 313 312 312 312
342 345 344 336 335 332 334 333 331 334 342 340 339 338 336 335 339 339 336 334 331 329 326 323 320 319 318 316 315 315 315 314 313 311 311 311 312 311 311 311 312 312 311 310
343 343 338 338 337 336 331 331 334 349 339 340 337 337 339 337 335 334 334 333 331 327 324 321 319 318 317 316 316 315 315 314 313 312 311 311 312 311 310 310 311 311 311 310
342 339 343 346 344 335 338 348 343 342 339 336 336 336 338 335 334 333 332 331 329 325 322 319 318 318 317 316 315 314 314 313 313 311 311 312 311 311 310 310 310 309 310 309
341 342 341 344 340 335 338 340 336 335 336 334 335 335 335 334 332 332 331 329 327 322 320 319 319 318 317 315 315 313 314 313 312 311 312 312 311 310 310 310 309 309 308 308
342 336 342 344 344 340 339 337 335 334 333 333 332 333 331 330 330 330 329 327 323 320 319 319 319 318 317 316 315 314 313 313 312 311 312 311 311 310 310 310 309 309 309 308
339 340 341 343 343 342 342 337 334 332 332 331 332 330 329 329 328 328 327 323 321 320 319 318 319 318 317 316 315 315 314 312 312 312 311 311 309 310 309 309 309 308 308 307
Wind_Speed
17 13 15 19 17 19 11 6 16 23 27 34 5 8 20 19 16 17 17 16 14 16 19 19 17 11 9 9 9 10 11 13 13 12 13 12 11 10 13 17 13 17 18 16
13 18 19 20 18 18 21 19 14 5 12 6 5 12 15 22 20 18 16 16 18 17 16 23 18 14 10 7 8 9 11 12 14 12 11 8 6 10 13 13 16 18 18 17
20 19 20 22 20 19 17 18 12 19 10 8 9 15 14 23 20 17 15 14 19 19 17 18 17 15 15 9 7 8 10 10 12 13 9 11 8 12 14 14 16 14 16 15
20 21 24 23 23 20 17 17 13 18 17 13 5 13 19 19 18 18 18 16 18 18 17 15 18 17 13 12 7 8 9 10 11 13 11 11 11 12 13 11 11 11 12 12
20 22 20 20 23 16 15 14 18 17 17 19 16 11 6 14 17 20 18 18 20 18 17 17 18 16 12 12 10 9 8 8 8 9 9 11 11 11 9 9 9 9 13 13
17 13 19 9 13 10 16 18 14 12 15 13 8 2 7 10 21 19 19 20 21 21 17 17 19 16 13 11 13 9 9 7 6 6 11 8 9 9 10 12 12 13 12 15
17 20 5 5 13 19 19 13 9 11 10 3 2 9 7 28 16 21 19 24 23 21 19 16 16 16 14 10 11 12 9 8 5 9 9 9 9 9 9 12 13 13 15 16
15 14 18 14 18 17 13 14 11 9 9 12 18 8 6 12 5 16 18 24 24 21 18 19 19 18 14 11 6 10 9 8 7 8 7 8 9 8 10 11 12 13 12 16
13 19 17 20 17 16 16 17 18 16 16 16 4 4 5 16 4 14 23 22 22 20 18 16 19 16 15 12 8 7 10 8 8 8 7 6 6 8 9 11 12 12 13 15
19 15 19 19 16 18 19 13 11 7 16 13 12 6 6 19 12 11 20 20 16 21 17 16 16 14 13 13 9 9 9 8 9 7 5 6 6 7 9 11 12 15 16 16
21 14 20 19 13 16 14 13 12 10 4 11 5 4 5 4 13 11 17 16 17 16 17 14 16 14 13 15 13 10 9 8 10 8 5 5 6 7 8 9 10 13 15 17
21 7 12 12 20 18 17 11 15 9 7 10 13 5 6 6 9 12 14 16 16 15 16 14 17 16 12 11 12 8 6 7 10 8 5 4 4 6 8 8 11 12 14 16
14 9 9 15 10 12 14 13 12 6 3 12 11 4 1 3 10 12 16 17 15 15 16 14 17 15 15 11 11 11 9 7 10 8 5 4 5 4 7 8 10 11 12 14
12 10 11 12 13 9 19 17 16 11 7 7 3 11 5 5 9 11 15 18 17 14 15 13 12 13 14 13 11 10 8 8 10 9 5 3 3 3 6 6 8 8 8 11
12 11 15 20 18 14 17 17 20 18 10 6 5 2 16 12 11 11 14 15 16 16 15 13 11 13 14 12 11 10 9 8 10 6 3 1 0 1 3 6 6 7 9 12
10 8 13 19 15 15 9 13 6 4 8 5 4 9 13 11 13 13 15 15 16 15 14 13 12 15 15 14 12 11 10 9 11 5 2 2 2 2 3 6 7 9 11 15
8 9 11 17 19 13 12 13 12 7 2 1 4 11 11 6 10 12 14 15 15 14 14 13 11 13 13 12 10 11 10 9 11 3 3 4 4 2 3 8 7 10 13 13
12 12 10 11 7 3 16 9 9 6 3 7 1 10 9 10 7 10 14 14 13 13 13 12 13 13 14 12 10 10 10 9 12 5 3 4 4 2 5 5 8 11 12 13
14 11 11 7 3 5 7 14 9 2 8 5 9 12 12 11 8 6 10 13 11 12 13 15 15 16 14 13 11 10 9 9 6 10 4 2 3 2 6 6 7 10 11 13
9 10 10 10 8 11 11 20 2 4 8 6 9 13 14 11 7 9 13 14 14 17 19 17 18 17 14 12 11 10 10 9 8 5 5 1 2 3 9 7 8 11 13 12
11 10 13 9 5 3 6 6 4 5 1 8 8 13 13 7 4 13 15 12 19 19 20 20 18 16 14 11 9 9 8 7 5 5 6 1 2 5 9 11 10 10 12 13
14 10 8 8 8 6 3 8 4 3 0 7 7 12 15 13 13 14 14 15 16 19 21 19 17 17 15 12 11 7 3 2 3 7 4 1 3 5 7 11 11 13 10 10
14 13 5 4 3 11 15 9 6 5 5 5 9 11 16 13 13 13 12 13 15 19 18 18 18 17 15 9 10 9 6 2 2 5 4 2 4 6 8 9 8 12 13 11
12 11 6 7 9 13 20 5 3 3 6 5 11 10 14 13 13 13 12 12 14 17 15 16 18 16 15 10 6 13 6 3 2 6 2 2 4 6 7 5 5 5 6 9
18 7 11 7 13 15 12 7 7 7 7 8 10 12 12 15 14 13 11 12 16 16 15 15 15 18 14 12 10 9 4 3 2 3 2 4 5 6 7 6 7 6 4 4
7 4 3 7 12 8 12 10 8 8 9 9 13 12 13 14 13 13 11 15 16 15 14 12 14 16 12 8 15 9 7 4 5 4 5 4 6 9 7 7 3 7 6 7
Wind_Direction
203 207 212 210 230 247 280 239 207 188 199 234 198 213 162 166 199 210 187 187 171 152 142 137 122 117 103 84 74 55 47 31 34 34 25 17 16 42 36 43 35 29 10 6
189 218 224 234 226 246 271 278 265 103 147 200 260 239 189 171 192 209 198 194 160 156 149 133 135 133 111 102 85 63 49 41 33 29 29 0 14 57 41 40 34 10 8 9
222 214 227 246 238 232 246 265 282 278 155 207 252 262 252 179 176 201 213 187 162 162 155 137 148 145 131 113 84 67 53 50 35 36 26 4 38 36 33 19 22 11 12 9
234 235 205 232 250 238 243 248 251 273 287 276 289 256 269 167 175 191 208 171 169 161 152 142 147 140 137 125 111 81 63 49 46 37 34 40 33 43 38 9 359 2 360 2
225 224 239 228 238 241 256 265 266 264 259 267 262 269 12 178 188 194 203 187 168 158 161 153 147 150 149 142 127 103 84 67 57 61 52 40 31 23 27 11 357 3 356 348
253 225 239 238 290 277 264 253 253 275 274 266 341 58 289 216 198 192 193 157 158 165 148 146 143 149 153 162 140 117 108 88 73 72 63 46 36 28 14 2 2 359 353 351
230 249 185 223 236 249 249 247 246 245 243 277 277 317 233 259 190 188 184 153 153 150 148 142 153 168 171 139 126 128 118 109 98 84 61 40 34 35 18 5 4 349 353 344
219 216 234 183 237 233 234 236 244 239 233 243 193 244 181 183 126 164 165 140 143 151 150 159 167 166 167 132 125 135 132 117 110 80 64 54 40 27 17 11 356 352 353 349
234 231 244 207 215 228 219 235 237 259 270 284 158 274 61 25 329 140 140 148 156 151 157 165 168 148 129 132 137 132 119 119 102 91 84 63 40 26 8 11 8 5 360 359
252 270 266 184 205 225 241 212 251 250 265 293 330 6 298 202 179 168 143 149 154 153 158 143 138 135 140 132 139 135 133 128 116 91 73 58 40 17 12 14 13 12 3 358
237 257 278 176 193 214 232 245 245 260 178 257 247 144 263 323 150 168 149 153 162 152 140 140 145 147 152 161 147 148 146 143 120 100 80 58 36 12 11 14 13 4 1 359
214 241 258 242 198 198 240 258 241 256 278 23 305 31 11 36 137 152 150 161 157 147 145 158 149 151 150 147 135 130 133 139 113 104 83 66 41 3 7 17 8 7 3 358
194 231 256 265 180 213 223 245 272 121 78 293 288 126 112 124 138 161 162 162 145 150 155 163 153 160 147 143 146 150 158 128 114 103 94 65 22 3 352 24 12 10 9 8
184 208 232 254 185 287 208 226 250 258 214 243 81 49 274 199 148 171 166 154 160 159 160 162 154 145 144 148 158 154 144 135 118 108 116 81 35 344 340 8 8 356 353 352
192 229 228 253 263 271 273 206 224 244 243 252 297 342 196 155 160 171 153 154 158 163 166 153 148 143 139 147 155 153 148 139 115 108 112 101 272 280 335 330 348 344 2 0
182 204 246 258 245 252 167 247 225 233 272 303 314 49 101 127 144 161 156 167 168 173 171 155 152 154 158 158 165 161 155 145 137 140 198 202 217 195 302 307 317 340 354 356
200 201 241 244 256 226 239 225 215 211 246 329 325 103 116 136 154 163 160 175 172 176 167 156 156 155 149 151 152 152 158 148 145 149 224 223 182 196 304 317 331 340 342 350
212 203 247 251 58 274 345 27 26 14 343 1 106 140 121 132 158 169 166 172 173 164 154 150 151 143 141 141 147 159 166 163 163 161 211 216 196 233 302 306 349 338 336 335
189 209 235 256 73 16 322 321 343 335 299 307 272 125 121 126 140 165 165 155 153 142 141 140 147 142 139 139 155 161 171 183 199 161 194 259 186 255 292 317 340 327 317 332
203 229 243 259 224 182 204 220 358 341 251 317 240 132 129 144 187 182 149 140 136 136 131 136 134 136 144 145 154 169 188 188 201 139 167 197 342 299 310 326 326 324 337 338
187 211 220 232 229 275 119 121 143 193 169 32 69 123 131 136 56 112 119 124 126 127 131 131 136 142 137 140 163 188 190 188 186 164 136 135 303 320 328 319 318 329 340 340
195 198 200 214 201 233 129 143 189 87 26 87 101 116 103 116 122 117 121 121 130 135 136 144 146 137 142 156 174 132 103 48 180 146 127 198 298 310 309 314 325 329 336 1
262 201 130 100 139 302 309 69 87 78 84 97 125 126 123 132 133 131 127 133 139 139 147 151 149 141 144 166 152 156 148 202 228 140 149 288 303 305 302 302 317 350 343 352
261 140 105 137 198 179 245 125 114 122 115 119 123 136 128 136 135 132 135 134 141 143 153 153 147 149 136 151 160 139 150 174 285 144 156 287 301 301 298 299 320 347 339 346
287 175 154 126 180 180 148 157 137 112 125 118 126 122 132 137 145 140 143 141 144 149 156 156 157 154 152 172 174 145 149 153 183 166 225 261 254 253 270 262 267 329 315 327
333 356 41 62 122 94 131 124 136 141 129 130 124 132 139 142 147 140 139 144 145 151 149 147 122 134 163 164 140 156 170 153 159 217 236 254 258 252 270 271 246 292 276 287